TimeCST,TemperatureF,Dew PointF,Humidity,Sea Level PressureIn,VisibilityMPH,Wind Direction,Wind SpeedMPH,Gust SpeedMPH,PrecipitationIn,Events,Conditions,WindDirDegrees,DateUTC
12:15 AM,34.0,17.4,51,30.04,10.0,Calm,Calm,-,N/A,,Clear,0,2012-01-06 06:15:00
12:35 AM,31.8,16.7,54,30.03,10.0,South,3.5,-,N/A,,Clear,190,2012-01-06 06:35:00
12:55 AM,31.5,16.9,55,30.03,10.0,Calm,Calm,-,N/A,,Clear,0,2012-01-06 06:55:00
1:15 AM,31.6,16.0,52,30.02,10.0,South,4.6,-,N/A,,Clear,170,2012-01-06 07:15:00
1:35 AM,31.3,15.8,53,30.02,10.0,SSW,3.5,-,N/A,,Clear,210,2012-01-06 07:35:00
2:15 AM,31.5,16.9,55,30.00,10.0,SW,8.1,-,N/A,,Clear,230,2012-01-06 08:15:00
2:35 AM,32.0,17.1,54,30.00,10.0,SW,6.9,-,N/A,,Clear,220,2012-01-06 08:35:00
2:55 AM,30.9,17.1,57,30.00,10.0,SW,5.8,-,N/A,,Clear,220,2012-01-06 08:55:00
3:15 AM,30.2,17.6,60,30.00,10.0,Calm,Calm,-,N/A,,Clear,0,2012-01-06 09:15:00
3:35 AM,30.7,17.1,57,29.99,10.0,South,5.8,-,N/A,,Clear,190,2012-01-06 09:35:00
3:55 AM,30.2,17.1,58,29.98,10.0,South,3.5,-,N/A,,Clear,170,2012-01-06 09:55:00
4:15 AM,28.2,15.8,60,29.98,10.0,South,5.8,-,N/A,,Clear,180,2012-01-06 10:15:00
4:35 AM,27.0,15.6,62,29.98,10.0,South,5.8,-,N/A,,Clear,190,2012-01-06 10:35:00
4:55 AM,26.8,15.8,63,29.98,10.0,SSW,3.5,-,N/A,,Clear,200,2012-01-06 10:55:00
5:15 AM,29.5,17.2,60,29.97,10.0,South,5.8,-,N/A,,Clear,190,2012-01-06 11:15:00
5:35 AM,29.7,16.7,59,29.98,10.0,SSW,4.6,-,N/A,,Clear,210,2012-01-06 11:35:00
5:55 AM,30.6,16.7,56,29.97,10.0,SW,5.8,-,N/A,,Clear,220,2012-01-06 11:55:00
6:15 AM,29.7,16.9,59,29.98,10.0,Calm,Calm,-,N/A,,Clear,0,2012-01-06 12:15:00
6:35 AM,29.7,16.9,59,29.98,10.0,Calm,Calm,-,N/A,,Clear,0,2012-01-06 12:35:00
6:55 AM,30.7,16.2,55,29.97,10.0,South,5.8,-,N/A,,Clear,180,2012-01-06 12:55:00
7:15 AM,30.2,15.3,54,29.97,10.0,South,4.6,-,N/A,,Clear,190,2012-01-06 13:15:00
7:35 AM,30.4,15.1,53,29.96,10.0,South,9.2,-,N/A,,Clear,180,2012-01-06 13:35:00
7:55 AM,30.0,14.9,53,29.96,10.0,SSE,4.6,-,N/A,,Clear,160,2012-01-06 13:55:00
8:15 AM,28.6,14.5,56,29.96,10.0,South,4.6,-,N/A,,Clear,170,2012-01-06 14:15:00
8:35 AM,29.8,15.1,54,29.96,10.0,SSE,3.5,-,N/A,,Clear,160,2012-01-06 14:35:00
8:55 AM,31.5,16.2,53,29.97,10.0,Calm,Calm,-,N/A,,Clear,0,2012-01-06 14:55:00
9:15 AM,33.3,16.9,51,29.97,10.0,Calm,Calm,-,N/A,,Clear,0,2012-01-06 15:15:00
9:35 AM,36.9,18.0,46,29.98,10.0,Calm,Calm,-,N/A,,Clear,0,2012-01-06 15:35:00
9:55 AM,41.0,19.0,41,29.98,10.0,Calm,Calm,-,N/A,,Clear,0,2012-01-06 15:55:00
10:15 AM,46.8,20.5,35,29.98,10.0,Calm,Calm,-,N/A,,Clear,0,2012-01-06 16:15:00
10:35 AM,54.7,20.3,26,29.98,10.0,WSW,16.1,-,N/A,,Clear,240,2012-01-06 16:35:00
10:55 AM,64.0,15.3,15,29.98,10.0,WSW,17.3,23.0,N/A,,Clear,250,2012-01-06 16:55:00
11:15 AM,65.5,14.7,14,29.97,10.0,WSW,21.9,28.8,N/A,,Clear,250,2012-01-06 17:15:00
11:35 AM,66.4,14.5,14,29.97,10.0,WSW,24.2,-,N/A,,Clear,250,2012-01-06 17:35:00
11:55 AM,67.1,14.4,13,29.96,10.0,West,21.9,29.9,N/A,,Clear,260,2012-01-06 17:55:00
12:15 PM,68.0,14.2,13,29.95,10.0,WSW,21.9,-,N/A,,Clear,250,2012-01-06 18:15:00
12:35 PM,69.1,14.2,12,29.93,10.0,WSW,25.3,31.1,N/A,,Clear,250,2012-01-06 18:35:00
12:55 PM,70.2,14.0,12,29.91,10.0,WSW,21.9,28.8,N/A,,Clear,250,2012-01-06 18:55:00
1:15 PM,71.1,14.0,11,29.90,10.0,WSW,25.3,32.2,N/A,,Clear,250,2012-01-06 19:15:00
1:35 PM,71.6,14.2,11,29.89,10.0,West,21.9,34.5,N/A,,Clear,260,2012-01-06 19:35:00
1:55 PM,72.0,14.2,11,29.88,10.0,West,24.2,33.4,N/A,,Clear,260,2012-01-06 19:55:00
2:15 PM,72.7,13.6,10,29.87,10.0,West,26.5,32.2,N/A,,Clear,260,2012-01-06 20:15:00
2:35 PM,73.2,12.9,10,29.86,10.0,West,21.9,34.5,N/A,,Clear,260,2012-01-06 20:35:00
2:55 PM,73.6,12.2,10,29.86,10.0,West,27.6,34.5,N/A,,Clear,260,2012-01-06 20:55:00
3:15 PM,73.2,11.5,9,29.86,10.0,West,29.9,34.5,N/A,,Clear,270,2012-01-06 21:15:00
3:35 PM,73.2,12.2,10,29.86,10.0,WSW,24.2,32.2,N/A,,Clear,250,2012-01-06 21:35:00
3:55 PM,73.0,12.7,10,29.86,10.0,West,21.9,26.5,N/A,,Clear,260,2012-01-06 21:55:00
4:15 PM,72.9,13.1,10,29.86,10.0,West,21.9,32.2,N/A,,Clear,260,2012-01-06 22:15:00
4:55 PM,72.3,12.7,10,29.88,10.0,West,15.0,-,N/A,,Clear,260,2012-01-06 22:55:00
5:35 PM,70.0,13.8,12,29.89,10.0,West,18.4,-,N/A,,Clear,260,2012-01-06 23:35:00
5:55 PM,68.0,13.8,12,29.90,10.0,West,12.7,-,N/A,,Clear,270,2012-01-06 23:55:00
6:15 PM,64.0,13.8,14,29.91,10.0,West,8.1,-,N/A,,Clear,260,2012-01-07 00:15:00
6:35 PM,60.3,14.5,17,29.92,10.0,West,9.2,-,N/A,,Clear,270,2012-01-07 00:35:00
6:55 PM,59.7,14.9,17,29.92,10.0,West,10.4,-,N/A,,Clear,260,2012-01-07 00:55:00
7:15 PM,58.6,14.9,18,29.93,10.0,WSW,12.7,-,N/A,,Clear,250,2012-01-07 01:15:00
7:35 PM,57.7,15.6,19,29.95,10.0,West,12.7,-,N/A,,Clear,260,2012-01-07 01:35:00
7:55 PM,57.2,16.2,20,29.95,10.0,West,11.5,-,N/A,,Clear,260,2012-01-07 01:55:00
8:15 PM,55.2,16.9,22,29.96,10.0,WSW,11.5,-,N/A,,Clear,250,2012-01-07 02:15:00
8:35 PM,53.4,16.9,24,29.96,10.0,West,12.7,-,N/A,,Clear,260,2012-01-07 02:35:00
8:55 PM,51.8,16.9,25,29.97,10.0,West,10.4,-,N/A,,Clear,260,2012-01-07 02:55:00
9:15 PM,50.0,17.4,28,29.98,10.0,West,10.4,-,N/A,,Clear,260,2012-01-07 03:15:00
9:35 PM,49.8,17.4,28,29.99,10.0,West,6.9,-,N/A,,Clear,280,2012-01-07 03:35:00
9:55 PM,47.8,17.8,30,30.00,10.0,NW,8.1,-,N/A,,Clear,320,2012-01-07 03:55:00
10:15 PM,45.9,17.4,32,30.02,10.0,WNW,6.9,-,N/A,,Clear,290,2012-01-07 04:15:00
10:35 PM,45.9,17.6,32,30.02,10.0,West,10.4,-,N/A,,Clear,270,2012-01-07 04:35:00
10:55 PM,46.2,18.0,32,30.03,10.0,WNW,9.2,-,N/A,,Clear,290,2012-01-07 04:55:00
11:15 PM,47.3,18.1,31,30.04,10.0,WNW,10.4,-,N/A,,Clear,300,2012-01-07 05:15:00
11:35 PM,46.9,18.7,33,30.05,10.0,WNW,6.9,-,N/A,,Clear,300,2012-01-07 05:35:00
11:55 PM,45.7,19.4,35,30.05,10.0,Calm,Calm,-,N/A,,Clear,0,2012-01-07 05:55:00